27-12-2022, 00:00:06,    232,    1.4,    1.9,   0.00,   0.00, 1018.0,   86.6, -999.0
27-12-2022, 00:00:16,    246,    1.0,    1.9,   0.00,   0.00, 1018.0,   86.8, -999.0
27-12-2022, 00:00:26,    216,    2.1,    1.8,   0.00,   0.00, 1018.0,   86.8, -999.0
27-12-2022, 00:00:36,    217,    0.5,    1.8,   0.00,   0.00, 1018.0,   86.8, -999.0
27-12-2022, 00:00:46,    238,    1.9,    1.9,   0.00,   0.00, 1018.0,   87.2, -999.0
27-12-2022, 00:00:56,    238,    0.8,    1.9,   0.00,   0.00, 1018.0,   87.3, -999.0
27-12-2022, 00:01:06,    225,    0.0,    1.9,   0.00,   0.00, 1017.9,   87.0, -999.0
27-12-2022, 00:01:16,    216,    0.4,    1.8,   0.00,   0.00, 1018.0,   87.1, -999.0
27-12-2022, 00:01:26,    216,    0.3,    1.8,   0.00,   0.00, 1018.0,   87.2, -999.0
27-12-2022, 00:01:36,    218,    0.2,    1.8,   0.00,   0.00, 1018.0,   86.9, -999.0
27-12-2022, 00:01:46,    218,    0.0,    1.8,   0.00,   0.00, 1017.9,   86.7, -999.0
27-12-2022, 00:01:56,    218,    0.0,    1.8,   0.00,   0.00, 1017.9,   86.6, -999.0
27-12-2022, 00:02:06,    218,    0.0,    1.8,   0.00,   0.00, 1017.9,   86.4, -999.0
27-12-2022, 00:02:16,    219,    0.0,    1.7,   0.00,   0.00, 1017.9,   86.3, -999.0
27-12-2022, 00:02:26,    219,    0.0,    1.8,   0.00,   0.00, 1017.9,   86.3, -999.0
27-12-2022, 00:02:36,    219,    0.0,    1.7,   0.00,   0.00, 1017.9,   86.2, -999.0
27-12-2022, 00:02:46,    220,    0.0,    1.7,   0.00,   0.00, 1017.9,   86.0, -999.0
27-12-2022, 00:02:56,    219,    0.3,    1.8,   0.00,   0.00, 1018.0,   86.2, -999.0
27-12-2022, 00:03:06,    212,    0.7,    1.7,   0.00,   0.00, 1018.0,   86.5, -999.0
27-12-2022, 00:03:16,    210,    1.1,    1.8,   0.00,   0.00, 1018.0,   87.0, -999.0
27-12-2022, 00:03:26,    211,    0.1,    1.8,   0.00,   0.00, 1018.0,   86.9, -999.0
27-12-2022, 00:03:36,    244,    1.9,    1.7,   0.00,   0.00, 1018.0,   87.3, -999.0
27-12-2022, 00:03:46,    236,    2.4,    1.9,   0.00,   0.00, 1018.0,   87.5, -999.0
27-12-2022, 00:03:55,    230,    1.0,    1.8,   0.00,   0.00, 1018.0,   87.7, -999.0
27-12-2022, 00:04:06,    231,    0.5,    1.8,   0.00,   0.00, 1018.0,   87.7, -999.0
27-12-2022, 00:04:16,    236,    0.8,    1.7,   0.00,   0.00, 1018.0,   87.7, -999.0
27-12-2022, 00:04:26,    232,    0.0,    1.8,   0.00,   0.00, 1018.0,   87.4, -999.0
27-12-2022, 00:04:35,    232,    0.0,    1.8,   0.00,   0.00, 1017.9,   87.5, -999.0
27-12-2022, 00:04:46,    232,    0.0,    1.8,   0.00,   0.00, 1017.9,   87.6, -999.0
27-12-2022, 00:04:56,    222,    0.5,    1.8,   0.00,   0.00, 1018.0,   87.9, -999.0
27-12-2022, 00:05:05,    226,    0.2,    1.8,   0.00,   0.00, 1018.0,   87.9, -999.0
27-12-2022, 00:05:16,    212,    0.4,    1.8,   0.00,   0.00, 1018.0,   87.8, -999.0
27-12-2022, 00:05:26,    229,    0.9,    1.8,   0.00,   0.00, 1018.0,   87.8, -999.0
27-12-2022, 00:05:35,    230,    0.0,    1.8,   0.00,   0.00, 1017.9,   87.6, -999.0
27-12-2022, 00:05:45,    230,    0.0,    1.7,   0.00,   0.00, 1017.9,   87.3, -999.0
27-12-2022, 00:05:56,    229,    0.0,    1.7,   0.00,   0.00, 1017.9,   87.0, -999.0
27-12-2022, 00:06:06,    195,    1.5,    1.7,   0.00,   0.00, 1018.0,   87.1, -999.0
27-12-2022, 00:06:15,    216,    3.6,    1.8,   0.00,   0.00, 1018.1,   87.6, -999.0
27-12-2022, 00:06:25,    243,    1.9,    1.9,   0.00,   0.00, 1018.1,   88.1, -999.0
27-12-2022, 00:06:36,    275,    1.1,    1.9,   0.00,   0.00, 1018.1,   88.2, -999.0
27-12-2022, 00:06:45,    275,    0.2,    1.8,   0.00,   0.00, 1018.1,   88.1, -999.0
27-12-2022, 00:06:55,    242,    0.1,    1.8,   0.00,   0.00, 1018.0,   87.5, -999.0
27-12-2022, 00:07:05,    217,    2.2,    1.8,   0.00,   0.00, 1018.1,   87.7, -999.0
27-12-2022, 00:07:15,    226,    1.5,    1.8,   0.00,   0.00, 1018.1,   87.8, -999.0
27-12-2022, 00:07:25,    230,    0.6,    1.8,   0.00,   0.00, 1018.1,   88.1, -999.0
27-12-2022, 00:07:35,    215,    1.9,    1.6,   0.00,   0.00, 1018.1,   88.2, -999.0
27-12-2022, 00:07:45,    203,    1.9,    1.8,   0.00,   0.00, 1018.1,   88.5, -999.0
27-12-2022, 00:07:55,    214,    2.3,    1.9,   0.00,   0.00, 1018.1,   88.8, -999.0
27-12-2022, 00:08:05,    265,    2.3,    1.8,   0.00,   0.00, 1018.1,   88.9, -999.0
27-12-2022, 00:08:15,    218,    0.5,    1.8,   0.00,   0.00, 1018.1,   89.0, -999.0
27-12-2022, 00:08:25,    221,    1.9,    1.9,   0.00,   0.00, 1018.1,   88.7, -999.0
27-12-2022, 00:08:35,    228,    1.5,    1.9,   0.00,   0.00, 1018.1,   88.7, -999.0
27-12-2022, 00:08:45,    213,    0.9,    1.9,   0.00,   0.00, 1018.1,   88.9, -999.0
27-12-2022, 00:08:55,    246,    1.0,    1.9,   0.00,   0.00, 1018.1,   89.0, -999.0
27-12-2022, 00:09:05,    207,    0.5,    2.0,   0.00,   0.00, 1018.1,   88.7, -999.0
27-12-2022, 00:09:15,    207,    0.2,    1.8,   0.00,   0.00, 1018.1,   88.3, -999.0
27-12-2022, 00:09:25,    223,    1.8,    1.8,   0.00,   0.00, 1018.1,   88.2, -999.0
27-12-2022, 00:09:35,    209,    1.7,    1.9,   0.00,   0.00, 1018.1,   88.0, -999.0
27-12-2022, 00:09:45,    217,    2.4,    1.8,   0.00,   0.00, 1018.1,   88.1, -999.0
27-12-2022, 00:09:55,    213,    1.3,    1.8,   0.00,   0.00, 1018.1,   88.0, -999.0
27-12-2022, 00:10:05,    228,    0.2,    1.8,   0.00,   0.00, 1018.1,   87.9, -999.0
27-12-2022, 00:10:15,    232,    0.4,    1.9,   0.00,   0.00, 1018.1,   87.6, -999.0
27-12-2022, 00:10:25,    241,    0.3,    1.8,   0.00,   0.00, 1018.0,   87.3, -999.0
27-12-2022, 00:10:35,    239,    0.2,    1.8,   0.00,   0.00, 1018.0,   87.1, -999.0
27-12-2022, 00:10:45,    225,    0.9,    1.9,   0.00,   0.00, 1018.0,   87.3, -999.0
27-12-2022, 00:10:55,    194,    2.8,    1.9,   0.00,   0.00, 1018.1,   87.4, -999.0
27-12-2022, 00:11:05,    201,    0.6,    1.9,   0.00,   0.00, 1018.1,   87.5, -999.0
27-12-2022, 00:11:15,    251,    0.9,    1.9,   0.00,   0.00, 1018.0,   87.8, -999.0
27-12-2022, 00:11:25,    211,    2.0,    1.9,   0.00,   0.00, 1018.1,   87.9, -999.0
27-12-2022, 00:11:35,    218,    1.4,    1.9,   0.00,   0.00, 1018.1,   88.1, -999.0
27-12-2022, 00:11:45,    219,    0.1,    1.8,   0.00,   0.00, 1018.0,   87.9, -999.0
27-12-2022, 00:11:55,    218,    0.0,    1.8,   0.00,   0.00, 1018.0,   87.7, -999.0
27-12-2022, 00:12:05,    221,    0.0,    1.8,   0.00,   0.00, 1018.0,   87.3, -999.0
27-12-2022, 00:12:15,    223,    0.4,    1.9,   0.00,   0.00, 1018.0,   87.2, -999.0
27-12-2022, 00:12:25,    222,    0.2,    1.9,   0.00,   0.00, 1018.0,   87.0, -999.0
27-12-2022, 00:12:35,    272,    0.0,    1.9,   0.00,   0.00, 1017.9,   86.7, -999.0
27-12-2022, 00:12:45,    211,    1.3,    1.9,   0.00,   0.00, 1018.0,   87.0, -999.0
27-12-2022, 00:12:54,    244,    1.1,    1.9,   0.00,   0.00, 1018.0,   87.0, -999.0
27-12-2022, 00:13:05,    206,    1.5,    1.9,   0.00,   0.00, 1018.0,   87.2, -999.0
27-12-2022, 00:13:15,    228,    2.2,    2.0,   0.00,   0.00, 1018.0,   87.4, -999.0
27-12-2022, 00:13:24,    224,    0.9,    1.9,   0.00,   0.00, 1018.0,   87.5, -999.0
27-12-2022, 00:13:35,    227,    0.5,    1.8,   0.00,   0.00, 1017.9,   87.3, -999.0
27-12-2022, 00:13:45,    224,    2.0,    1.9,   0.00,   0.00, 1018.0,   87.3, -999.0
27-12-2022, 00:13:55,    232,    2.7,    1.9,   0.00,   0.00, 1018.0,   87.4, -999.0
27-12-2022, 00:14:04,    222,    2.0,    1.9,   0.00,   0.00, 1018.0,   87.4, -999.0
27-12-2022, 00:14:15,    222,    3.1,    1.9,   0.00,   0.00, 1018.0,   87.2, -999.0
27-12-2022, 00:14:25,    217,    2.9,    2.0,   0.00,   0.00, 1018.0,   87.2, -999.0
27-12-2022, 00:14:34,    242,    2.9,    2.0,   0.00,   0.00, 1018.0,   87.1, -999.0
27-12-2022, 00:14:44,    212,    2.6,    2.0,   0.00,   0.00, 1018.0,   86.9, -999.0
27-12-2022, 00:14:55,    220,    0.8,    1.9,   0.00,   0.00, 1018.0,   86.8, -999.0
27-12-2022, 00:15:07,    222,    1.4,    2.0,   0.00,   0.00, 1018.0,   86.6, -999.0
27-12-2022, 00:15:14,    222,    0.0,    1.9,   0.00,   0.00, 1017.9,   86.3, -999.0
27-12-2022, 00:15:25,    222,    2.4,    1.9,   0.00,   0.00, 1018.0,   86.3, -999.0
27-12-2022, 00:15:35,    227,    3.7,    2.0,   0.00,   0.00, 1018.0,   86.3, -999.0
27-12-2022, 00:15:44,    253,    2.7,    1.9,   0.00,   0.00, 1018.0,   86.5, -999.0
27-12-2022, 00:15:54,    222,    2.8,    2.0,   0.00,   0.00, 1018.0,   86.5, -999.0
27-12-2022, 00:16:05,    218,    2.5,    2.0,   0.00,   0.00, 1018.0,   86.4, -999.0
27-12-2022, 00:16:14,    228,    2.4,    2.0,   0.00,   0.00, 1018.0,   86.1, -999.0
27-12-2022, 00:16:24,    221,    3.6,    2.0,   0.00,   0.00, 1018.0,   86.1, -999.0
27-12-2022, 00:16:34,    234,    3.1,    2.0,   0.00,   0.00, 1018.0,   86.1, -999.0
27-12-2022, 00:16:45,    217,    2.7,    2.0,   0.00,   0.00, 1018.0,   85.8, -999.0
27-12-2022, 00:16:54,    205,    1.7,    1.9,   0.00,   0.00, 1018.0,   85.7, -999.0
27-12-2022, 00:17:04,    217,    1.8,    2.0,   0.00,   0.00, 1018.0,   85.7, -999.0
27-12-2022, 00:17:14,    207,    1.6,    1.9,   0.00,   0.00, 1018.0,   85.6, -999.0
27-12-2022, 00:17:24,    223,    1.0,    2.0,   0.00,   0.00, 1018.0,   85.6, -999.0
27-12-2022, 00:17:34,    215,    1.1,    2.0,   0.00,   0.00, 1018.0,   85.6, -999.0
27-12-2022, 00:17:44,    238,    0.9,    1.9,   0.00,   0.00, 1018.0,   85.6, -999.0
27-12-2022, 00:17:54,    194,    0.7,    1.9,   0.00,   0.00, 1017.9,   85.5, -999.0
27-12-2022, 00:18:04,    223,    1.1,    2.0,   0.00,   0.00, 1018.0,   85.5, -999.0
27-12-2022, 00:18:14,    211,    2.8,    2.0,   0.00,   0.00, 1018.0,   85.5, -999.0
27-12-2022, 00:18:24,    215,    0.5,    1.9,   0.00,   0.00, 1017.9,   85.4, -999.0
27-12-2022, 00:18:34,    230,    1.1,    2.0,   0.00,   0.00, 1018.0,   85.4, -999.0
27-12-2022, 00:18:44,    230,    1.1,    1.9,   0.00,   0.00, 1018.0,   85.4, -999.0
27-12-2022, 00:18:54,    229,    0.0,    1.9,   0.00,   0.00, 1017.9,   85.1, -999.0
27-12-2022, 00:19:04,    217,    2.1,    1.9,   0.00,   0.00, 1017.9,   85.4, -999.0
27-12-2022, 00:19:14,    203,    2.9,    1.9,   0.00,   0.00, 1018.0,   85.4, -999.0
27-12-2022, 00:19:24,    204,    2.8,    2.0,   0.00,   0.00, 1018.0,   85.4, -999.0
27-12-2022, 00:19:34,    190,    0.6,    2.0,   0.00,   0.00, 1017.9,   85.4, -999.0
27-12-2022, 00:19:44,    234,    0.0,    1.9,   0.00,   0.00, 1017.9,   85.0, -999.0
27-12-2022, 00:19:54,    230,    0.4,    1.9,   0.00,   0.00, 1017.9,   85.1, -999.0
27-12-2022, 00:20:04,    250,    0.6,    1.9,   0.00,   0.00, 1017.9,   85.0, -999.0
27-12-2022, 00:20:14,    225,    1.9,    2.0,   0.00,   0.00, 1018.0,   85.1, -999.0
27-12-2022, 00:20:24,    232,    3.0,    1.9,   0.00,   0.00, 1018.0,   85.2, -999.0
27-12-2022, 00:20:34,    220,    2.1,    1.9,   0.00,   0.00, 1018.0,   85.1, -999.0
27-12-2022, 00:20:44,    220,    0.3,    1.9,   0.00,   0.00, 1017.9,   85.1, -999.0
27-12-2022, 00:20:54,    220,    0.0,    1.9,   0.00,   0.00, 1017.8,   84.8, -999.0
27-12-2022, 00:21:04,    238,    1.4,    1.8,   0.00,   0.00, 1017.9,   85.2, -999.0
27-12-2022, 00:21:14,    206,    0.5,    1.9,   0.00,   0.00, 1018.0,   85.3, -999.0
27-12-2022, 00:21:24,    206,    0.0,    1.9,   0.00,   0.00, 1017.8,   85.0, -999.0
27-12-2022, 00:21:34,    238,    0.4,    1.8,   0.00,   0.00, 1017.9,   85.1, -999.0
27-12-2022, 00:21:44,    216,    0.8,    1.9,   0.00,   0.00, 1018.0,   85.2, -999.0
27-12-2022, 00:21:54,    215,    0.0,    1.9,   0.00,   0.00, 1017.8,   85.0, -999.0
27-12-2022, 00:22:04,    214,    0.1,    1.8,   0.00,   0.00, 1017.9,   85.0, -999.0
27-12-2022, 00:22:14,    215,    0.0,    1.8,   0.00,   0.00, 1017.8,   84.9, -999.0
27-12-2022, 00:22:24,    216,    0.0,    1.8,   0.00,   0.00, 1017.9,   84.8, -999.0
27-12-2022, 00:22:34,    218,    0.3,    1.9,   0.00,   0.00, 1017.9,   85.1, -999.0
27-12-2022, 00:22:44,    220,    0.2,    1.8,   0.00,   0.00, 1017.9,   84.9, -999.0
27-12-2022, 00:22:53,    220,    0.0,    1.8,   0.00,   0.00, 1017.9,   84.8, -999.0
27-12-2022, 00:23:04,    258,    0.9,    1.8,   0.00,   0.00, 1017.9,   85.0, -999.0
27-12-2022, 00:23:14,    257,    0.0,    1.8,   0.00,   0.00, 1017.8,   84.8, -999.0
27-12-2022, 00:23:24,    206,    0.1,    1.8,   0.00,   0.00, 1017.9,   85.0, -999.0
27-12-2022, 00:23:33,    222,    2.8,    1.9,   0.00,   0.00, 1018.0,   85.3, -999.0
27-12-2022, 00:23:44,    237,    1.8,    1.8,   0.00,   0.00, 1018.0,   85.5, -999.0
27-12-2022, 00:23:54,    237,    0.4,    1.8,   0.00,   0.00, 1017.9,   85.4, -999.0
27-12-2022, 00:24:03,    237,    0.0,    1.8,   0.00,   0.00, 1017.8,   85.2, -999.0
27-12-2022, 00:24:13,    220,    0.2,    1.8,   0.00,   0.00, 1017.9,   85.1, -999.0
27-12-2022, 00:24:24,    219,    0.3,    1.8,   0.00,   0.00, 1017.9,   85.2, -999.0
27-12-2022, 00:24:33,    248,    2.1,    1.8,   0.00,   0.00, 1017.9,   85.4, -999.0
27-12-2022, 00:24:43,    188,    1.3,    1.9,   0.00,   0.00, 1018.0,   85.6, -999.0
27-12-2022, 00:24:53,    200,    0.9,    1.9,   0.00,   0.00, 1017.9,   85.7, -999.0
27-12-2022, 00:25:04,    206,    0.2,    1.8,   0.00,   0.00, 1017.9,   85.6, -999.0
27-12-2022, 00:25:13,    254,    1.0,    1.9,   0.00,   0.00, 1017.9,   85.6, -999.0
27-12-2022, 00:25:23,    220,    0.8,    1.9,   0.00,   0.00, 1017.9,   85.7, -999.0
27-12-2022, 00:25:34,    221,    0.4,    1.8,   0.00,   0.00, 1017.9,   85.6, -999.0
27-12-2022, 00:25:43,    220,    0.8,    1.9,   0.00,   0.00, 1018.0,   85.8, -999.0
27-12-2022, 00:25:53,    220,    0.5,    1.9,   0.00,   0.00, 1017.9,   85.6, -999.0
27-12-2022, 00:26:03,    217,    0.7,    2.0,   0.00,   0.00, 1018.0,   85.8, -999.0
27-12-2022, 00:26:13,    220,    0.9,    1.9,   0.00,   0.00, 1017.9,   85.6, -999.0
27-12-2022, 00:26:23,    205,    1.2,    1.9,   0.00,   0.00, 1018.0,   85.6, -999.0
27-12-2022, 00:26:33,    224,    1.0,    2.0,   0.00,   0.00, 1018.0,   85.7, -999.0
27-12-2022, 00:26:43,    223,    0.6,    1.9,   0.00,   0.00, 1017.9,   85.6, -999.0
27-12-2022, 00:26:53,    249,    0.8,    1.9,   0.00,   0.00, 1018.0,   85.7, -999.0
27-12-2022, 00:27:03,    249,    0.0,    1.9,   0.00,   0.00, 1017.9,   85.4, -999.0
27-12-2022, 00:27:13,    252,    1.0,    1.9,   0.00,   0.00, 1018.0,   85.7, -999.0
27-12-2022, 00:27:23,    234,    1.5,    1.9,   0.00,   0.00, 1018.0,   85.5, -999.0
27-12-2022, 00:27:33,    203,    1.0,    2.0,   0.00,   0.00, 1017.9,   85.3, -999.0
27-12-2022, 00:27:43,    204,    0.0,    1.8,   0.00,   0.00, 1017.9,   85.0, -999.0
27-12-2022, 00:27:53,    205,    0.2,    1.9,   0.00,   0.00, 1017.9,   85.1, -999.0
27-12-2022, 00:28:03,    239,    1.1,    1.9,   0.00,   0.00, 1018.0,   85.3, -999.0
27-12-2022, 00:28:13,    240,    1.0,    1.9,   0.00,   0.00, 1018.0,   85.4, -999.0
27-12-2022, 00:28:23,    239,    0.0,    1.8,   0.00,   0.00, 1017.9,   85.1, -999.0
27-12-2022, 00:28:33,    213,    0.5,    1.8,   0.00,   0.00, 1017.9,   85.2, -999.0
27-12-2022, 00:28:43,    212,    0.5,    1.9,   0.00,   0.00, 1018.0,   85.5, -999.0
27-12-2022, 00:28:53,    212,    0.0,    1.7,   0.00,   0.00, 1017.9,   85.2, -999.0
27-12-2022, 00:29:03,    228,    1.0,    1.7,   0.00,   0.00, 1017.9,   85.4, -999.0
27-12-2022, 00:29:13,    227,    1.2,    1.9,   0.00,   0.00, 1018.0,   85.6, -999.0
27-12-2022, 00:29:23,    218,    0.1,    1.9,   0.00,   0.00, 1017.9,   85.4, -999.0
27-12-2022, 00:29:33,    218,    0.4,    1.8,   0.00,   0.00, 1018.0,   85.8, -999.0
27-12-2022, 00:29:43,    213,    0.2,    1.9,   0.00,   0.00, 1017.9,   85.7, -999.0
27-12-2022, 00:29:53,    213,    0.0,    1.8,   0.00,   0.00, 1017.9,   85.6, -999.0
27-12-2022, 00:30:03,    220,    0.9,    1.8,   0.00,   0.00, 1017.9,   85.7, -999.0
27-12-2022, 00:30:13,    218,    2.3,    1.9,   0.00,   0.00, 1018.0,   85.8, -999.0
27-12-2022, 00:30:23,    226,    2.8,    1.9,   0.00,   0.00, 1018.0,   86.1, -999.0
27-12-2022, 00:30:33,    229,    2.1,    1.8,   0.00,   0.00, 1018.0,   86.2, -999.0
27-12-2022, 00:30:43,    229,    0.9,    1.9,   0.00,   0.00, 1018.0,   86.2, -999.0
27-12-2022, 00:30:53,    203,    1.0,    1.9,   0.00,   0.00, 1018.0,   86.0, -999.0
27-12-2022, 00:31:03,    206,    0.4,    1.9,   0.00,   0.00, 1018.0,   86.1, -999.0
27-12-2022, 00:31:13,    273,    0.9,    1.9,   0.00,   0.00, 1018.0,   86.2, -999.0
27-12-2022, 00:31:23,    235,    0.3,    1.9,   0.00,   0.00, 1018.0,   86.1, -999.0
27-12-2022, 00:31:33,    234,    0.0,    1.7,   0.00,   0.00, 1017.9,   85.7, -999.0
27-12-2022, 00:31:43,    238,    0.5,    1.7,   0.00,   0.00, 1018.0,   85.8, -999.0
27-12-2022, 00:31:52,    196,    0.0,    1.8,   0.00,   0.00, 1017.9,   85.6, -999.0
27-12-2022, 00:32:03,    220,    1.7,    1.9,   0.00,   0.00, 1018.0,   85.9, -999.0
27-12-2022, 00:32:13,    238,    1.2,    1.9,   0.00,   0.00, 1018.0,   85.9, -999.0
27-12-2022, 00:32:22,    238,    0.0,    1.8,   0.00,   0.00, 1017.9,   85.3, -999.0
27-12-2022, 00:32:33,    208,    0.0,    1.8,   0.00,   0.00, 1018.0,   85.4, -999.0
27-12-2022, 00:32:43,    218,    0.0,    1.8,   0.00,   0.00, 1018.0,   85.4, -999.0
27-12-2022, 00:32:53,    218,    0.5,    1.9,   0.00,   0.00, 1018.0,   85.6, -999.0
27-12-2022, 00:33:02,    219,    0.0,    1.8,   0.00,   0.00, 1017.9,   85.3, -999.0
27-12-2022, 00:33:13,    220,    0.3,    1.8,   0.00,   0.00, 1018.0,   85.7, -999.0
27-12-2022, 00:33:23,    220,    0.4,    1.9,   0.00,   0.00, 1018.0,   85.9, -999.0
27-12-2022, 00:33:32,    211,    0.8,    1.9,   0.00,   0.00, 1018.0,   85.9, -999.0
27-12-2022, 00:33:42,    211,    0.9,    1.8,   0.00,   0.00, 1018.0,   85.9, -999.0
27-12-2022, 00:33:53,    237,    0.4,    1.8,   0.00,   0.00, 1018.0,   85.9, -999.0
27-12-2022, 00:34:03,    261,    0.9,    1.9,   0.00,   0.00, 1018.0,   86.0, -999.0
27-12-2022, 00:34:12,    261,    0.0,    1.8,   0.00,   0.00, 1017.9,   85.5, -999.0
27-12-2022, 00:34:22,    262,    0.0,    1.8,   0.00,   0.00, 1017.9,   85.3, -999.0
27-12-2022, 00:34:33,    261,    0.0,    1.8,   0.00,   0.00, 1017.9,   85.4, -999.0
27-12-2022, 00:34:42,    242,    1.5,    1.8,   0.00,   0.00, 1018.0,   85.6, -999.0
27-12-2022, 00:34:52,    221,    1.4,    1.9,   0.00,   0.00, 1018.1,   85.7, -999.0
27-12-2022, 00:35:02,    222,    0.7,    1.9,   0.00,   0.00, 1018.0,   85.8, -999.0
27-12-2022, 00:35:13,    245,    1.2,    1.8,   0.00,   0.00, 1018.0,   86.0, -999.0
27-12-2022, 00:35:22,    240,    0.1,    1.9,   0.00,   0.00, 1018.0,   85.8, -999.0
27-12-2022, 00:35:32,    253,    0.4,    1.8,   0.00,   0.00, 1018.0,   86.0, -999.0
27-12-2022, 00:35:42,    248,    1.4,    1.9,   0.00,   0.00, 1018.1,   86.3, -999.0
27-12-2022, 00:35:52,    204,    0.3,    1.8,   0.00,   0.00, 1018.0,   86.0, -999.0
27-12-2022, 00:36:02,    221,    2.3,    1.9,   0.00,   0.00, 1018.1,   86.2, -999.0
27-12-2022, 00:36:12,    221,    1.5,    1.8,   0.00,   0.00, 1018.1,   86.4, -999.0
27-12-2022, 00:36:22,    222,    1.1,    1.8,   0.00,   0.00, 1018.1,   86.4, -999.0
27-12-2022, 00:36:32,    219,    1.2,    1.9,   0.00,   0.00, 1018.1,   86.4, -999.0
27-12-2022, 00:36:42,    218,    0.4,    1.8,   0.00,   0.00, 1018.1,   86.2, -999.0
27-12-2022, 00:36:52,    218,    0.0,    1.8,   0.00,   0.00, 1018.0,   85.9, -999.0
27-12-2022, 00:37:02,    218,    0.0,    1.8,   0.00,   0.00, 1018.0,   85.9, -999.0
27-12-2022, 00:37:12,    219,    0.0,    1.8,   0.00,   0.00, 1018.0,   85.9, -999.0
27-12-2022, 00:37:22,    243,    0.9,    1.8,   0.00,   0.00, 1018.1,   86.1, -999.0
27-12-2022, 00:37:32,    255,    1.5,    1.9,   0.00,   0.00, 1018.1,   86.2, -999.0
27-12-2022, 00:37:42,    268,    1.0,    1.9,   0.00,   0.00, 1018.1,   86.2, -999.0
27-12-2022, 00:37:52,    264,    1.6,    1.8,   0.00,   0.00, 1018.1,   86.2, -999.0
27-12-2022, 00:38:02,    206,    0.1,    1.8,   0.00,   0.00, 1018.1,   86.0, -999.0
27-12-2022, 00:38:12,    207,    0.0,    1.8,   0.00,   0.00, 1018.0,   85.9, -999.0
27-12-2022, 00:38:22,    252,    1.4,    1.8,   0.00,   0.00, 1018.1,   86.3, -999.0
27-12-2022, 00:38:32,    200,    1.7,    1.9,   0.00,   0.00, 1018.1,   86.2, -999.0
27-12-2022, 00:38:42,    200,    0.5,    1.8,   0.00,   0.00, 1018.0,   86.3, -999.0
27-12-2022, 00:38:52,    200,    0.0,    1.8,   0.00,   0.00, 1017.9,   86.3, -999.0
27-12-2022, 00:39:02,    200,    0.0,    1.7,   0.00,   0.00, 1018.0,   86.3, -999.0
27-12-2022, 00:39:12,    232,    0.6,    1.8,   0.00,   0.00, 1018.1,   86.5, -999.0
27-12-2022, 00:39:22,    230,    0.0,    1.8,   0.00,   0.00, 1017.9,   86.3, -999.0
27-12-2022, 00:39:32,    229,    0.0,    1.7,   0.00,   0.00, 1017.9,   86.1, -999.0
27-12-2022, 00:39:42,    230,    0.0,    1.8,   0.00,   0.00, 1017.9,   86.1, -999.0
27-12-2022, 00:39:52,    231,    0.0,    1.7,   0.00,   0.00, 1017.9,   86.1, -999.0
27-12-2022, 00:40:02,    231,    0.0,    1.7,   0.00,   0.00, 1017.9,   86.3, -999.0
27-12-2022, 00:40:12,    231,    0.0,    1.8,   0.00,   0.00, 1017.9,   86.5, -999.0
27-12-2022, 00:40:22,    229,    1.0,    1.8,   0.00,   0.00, 1018.0,   86.9, -999.0
27-12-2022, 00:40:32,    228,    0.1,    1.8,   0.00,   0.00, 1018.0,   86.7, -999.0
27-12-2022, 00:40:42,    228,    0.0,    1.7,   0.00,   0.00, 1018.0,   86.6, -999.0
27-12-2022, 00:40:52,    228,    0.0,    1.7,   0.00,   0.00, 1017.9,   86.7, -999.0
27-12-2022, 00:41:02,    229,    0.0,    1.7,   0.00,   0.00, 1018.0,   86.6, -999.0
27-12-2022, 00:41:12,    229,    0.0,    1.7,   0.00,   0.00, 1017.9,   86.7, -999.0
27-12-2022, 00:41:22,    229,    0.0,    1.7,   0.00,   0.00, 1017.9,   86.6, -999.0
27-12-2022, 00:41:31,    228,    0.0,    1.8,   0.00,   0.00, 1018.0,   86.8, -999.0
27-12-2022, 00:41:42,    227,    0.6,    1.7,   0.00,   0.00, 1018.0,   87.0, -999.0
27-12-2022, 00:41:52,    232,    1.6,    1.8,   0.00,   0.00, 1018.1,   87.4, -999.0
27-12-2022, 00:42:02,    235,    0.0,    1.7,   0.00,   0.00, 1018.0,   87.5, -999.0
27-12-2022, 00:42:11,    235,    0.1,    1.8,   0.00,   0.00, 1018.0,   87.8, -999.0
27-12-2022, 00:42:22,    221,    0.0,    1.6,   0.00,   0.00, 1018.0,   87.7, -999.0
27-12-2022, 00:42:32,    221,    0.5,    1.8,   0.00,   0.00, 1018.1,   88.1, -999.0
27-12-2022, 00:42:41,    223,    0.7,    1.8,   0.00,   0.00, 1018.1,   88.5, -999.0
27-12-2022, 00:42:51,    222,    0.1,    1.8,   0.00,   0.00, 1018.1,   88.6, -999.0
27-12-2022, 00:43:02,    222,    0.0,    1.8,   0.00,   0.00, 1018.0,   88.5, -999.0
27-12-2022, 00:43:11,    222,    0.0,    1.8,   0.00,   0.00, 1018.0,   88.6, -999.0
27-12-2022, 00:43:21,    223,    0.2,    1.7,   0.00,   0.00, 1018.1,   88.7, -999.0
27-12-2022, 00:43:32,    262,    0.9,    1.8,   0.00,   0.00, 1018.1,   88.9, -999.0
27-12-2022, 00:43:42,    261,    0.1,    1.8,   0.00,   0.00, 1018.0,   88.7, -999.0
27-12-2022, 00:43:51,    246,    0.9,    1.8,   0.00,   0.00, 1018.1,   88.9, -999.0
27-12-2022, 00:44:01,    245,    0.1,    1.8,   0.00,   0.00, 1018.1,   88.5, -999.0
27-12-2022, 00:44:12,    245,    0.0,    1.7,   0.00,   0.00, 1018.0,   88.1, -999.0
27-12-2022, 00:44:21,    245,    0.2,    1.7,   0.00,   0.00, 1018.1,   88.2, -999.0
27-12-2022, 00:44:31,    240,    0.7,    1.8,   0.00,   0.00, 1018.1,   88.6, -999.0
27-12-2022, 00:44:41,    239,    0.2,    1.8,   0.00,   0.00, 1018.0,   88.5, -999.0
27-12-2022, 00:44:51,    242,    1.0,    1.8,   0.00,   0.00, 1018.1,   88.7, -999.0
27-12-2022, 00:45:01,    241,    0.5,    1.8,   0.00,   0.00, 1018.0,   88.7, -999.0
27-12-2022, 00:45:11,    242,    0.1,    1.7,   0.00,   0.00, 1018.0,   88.4, -999.0
27-12-2022, 00:45:21,    245,    1.4,    1.8,   0.00,   0.00, 1018.1,   88.9, -999.0
27-12-2022, 00:45:31,    244,    0.7,    1.8,   0.00,   0.00, 1018.1,   88.9, -999.0
27-12-2022, 00:45:41,    243,    0.0,    1.7,   0.00,   0.00, 1018.0,   88.8, -999.0
27-12-2022, 00:45:51,    243,    0.0,    1.7,   0.00,   0.00, 1018.0,   89.0, -999.0
27-12-2022, 00:46:01,    244,    0.0,    1.7,   0.00,   0.00, 1018.0,   89.0, -999.0
27-12-2022, 00:46:11,    244,    0.0,    1.7,   0.00,   0.00, 1018.0,   89.0, -999.0
27-12-2022, 00:46:21,    244,    0.0,    1.7,   0.00,   0.00, 1018.0,   88.7, -999.0
27-12-2022, 00:46:31,    254,    0.1,    1.7,   0.00,   0.00, 1018.1,   88.7, -999.0
27-12-2022, 00:46:41,    254,    0.8,    1.7,   0.00,   0.00, 1018.1,   88.8, -999.0
27-12-2022, 00:46:51,    253,    0.8,    1.7,   0.00,   0.00, 1018.1,   89.0, -999.0